Gastonia, NC

5:42 AM EDT on August 22, 2017 (GMT -0400)
Gastonia Municipal

Weather History for KAKH - November, 2012

Change the Weather History Date:

Friday, November 16, 2012

  Actual Average (KCLT) Record (KCLT)
Temperature  
Mean Temperature 45 °F -  
Max Temperature 57 °F 61 °F 82 °F (1958)
Min Temperature 33 °F 39 °F 22 °F (1969)
Degree Days  
Heating Degree Days 20    
Moisture  
Dew Point 33 °F    
Average Humidity 68    
Maximum Humidity 89    
Minimum Humidity 40    
Precipitation  
Precipitation 0.00 in - - ()
Sea Level Pressure  
Sea Level Pressure 30.32 in    
Wind  
Wind Speed 5 mph (NNE)    
Max Wind Speed 7 mph    
Max Gust Speed -    
Visibility 9 miles    
Events      
Averages and records for this station are not official NWS values.
T = Trace of Precipitation, MM = Missing Value Source: NWS Daily Summary

Daily Weather History Graph

Daily Weather History Graph

Search for Another Location

Airport or City:

Trip Planner

Search our weather history database for the weather conditions in past years. The results will help you decide how hot, cold, wet, or windy it might be!

Date:

Astronomy

Nov. 16, 2012 Rise Set
Actual Time 7:00 AM EST 5:17 PM EST
Civil Twilight 6:33 AM EST 5:44 PM EST
Nautical Twilight 6:03 AM EST 6:15 PM EST
Astronomical Twilight 5:32 AM EST 6:45 PM EST
Moon 9:52 AM EST (11/16) 8:17 PM EST (11/16)
Length of Visible Light 11h 10m
Length of Day
10h 16m
Waxing Crescent, 11% of the Moon is Illuminated
Nov 16
Waxing Crescent
Nov 20
First Quarter
Nov 28
Full
Dec 6
Last Quarter
Dec 13
New

Hourly Weather History & Observations

Time (EST) Temp. Windchill Dew Point Humidity Pressure Visibility Wind Dir Wind Speed Gust Speed Precip Events Conditions
12:54 AM 36.0 °F 31.1 °F 30.0 °F 79% 30.30 in 9.0 mi North 5.8 mph - N/A   Clear
1:54 AM 35.1 °F 31.0 °F 30.0 °F 82% 30.30 in 8.0 mi North 4.6 mph - N/A   Clear
2:54 AM 35.1 °F 31.0 °F 30.0 °F 82% 30.30 in 8.0 mi North 4.6 mph - N/A   Clear
3:54 AM 35.1 °F 29.3 °F 30.0 °F 82% 30.29 in 8.0 mi North 6.9 mph - N/A   Clear
4:54 AM 33.1 °F 28.7 °F 28.9 °F 85% 30.29 in 8.0 mi North 4.6 mph - N/A   Clear
5:54 AM 33.1 °F 28.7 °F 28.9 °F 85% 30.30 in 8.0 mi North 4.6 mph - N/A   Clear
6:54 AM 33.1 °F 30.0 °F 30.0 °F 89% 30.31 in 7.0 mi North 3.5 mph - N/A   Clear
7:54 AM 36.0 °F 32.1 °F 30.9 °F 82% 30.33 in 7.0 mi North 4.6 mph - N/A   Clear
8:54 AM 41.0 °F - 34.0 °F 76% 30.34 in 8.0 mi Calm Calm - N/A   Clear
9:54 AM 46.9 °F - 37.9 °F 71% 30.35 in 10.0 mi NE 5.8 mph - N/A   Clear
10:54 AM 51.1 °F - 39.0 °F 63% 30.34 in 10.0 mi NNE 5.8 mph - N/A   Clear
11:54 AM 53.1 °F - 37.0 °F 55% 30.32 in 10.0 mi NE 6.9 mph - N/A   Clear
12:54 PM 55.9 °F - 36.0 °F 47% 30.30 in 10.0 mi NNE 5.8 mph - N/A   Clear
1:54 PM 57.0 °F - 35.1 °F 44% 30.29 in 10.0 mi NNE 4.6 mph - N/A   Clear
2:54 PM 57.0 °F - 33.1 °F 40% 30.28 in 10.0 mi NNE 6.9 mph - N/A   Clear
3:54 PM 55.9 °F - 32.0 °F 40% 30.28 in 10.0 mi NNE 6.9 mph - N/A   Clear
4:54 PM 52.0 °F - 33.1 °F 49% 30.29 in 10.0 mi NE 5.8 mph - N/A   Clear
5:54 PM 48.0 °F - 34.0 °F 58% 30.31 in 10.0 mi Calm Calm - N/A   Clear
6:54 PM 44.1 °F - 35.1 °F 71% 30.32 in 10.0 mi Calm Calm - N/A   Clear
7:54 PM 44.1 °F 42.5 °F 35.1 °F 71% 30.35 in 10.0 mi NNE 3.5 mph - N/A   Clear
8:54 PM 43.0 °F 41.3 °F 34.0 °F 71% 30.36 in 10.0 mi NNE 3.5 mph - N/A   Clear
9:54 PM 43.0 °F 40.3 °F 33.1 °F 68% 30.38 in 10.0 mi North 4.6 mph - N/A   Clear
10:54 PM 43.0 °F 41.3 °F 32.0 °F 65% 30.38 in 10.0 mi North 3.5 mph - N/A   Clear
11:54 PM 39.0 °F 36.8 °F 32.0 °F 76% 30.40 in 10.0 mi NNE 3.5 mph - N/A   Clear